This demonstration page uses our WeatherBlox Daily Observations layout. Learn more.

Left ArrowRight Arrow

41.86663, -103.66717

Hourly Observations for January 3, 2016

Temp ( °F °C ) Dew Point ( °F °C ) Humidity (%) Winds ( mph kmh ) Pressure ( in mb ) Visibility ( mi km ) Precip ( " mm )
12:53 am 00:53 Clear 16 -8.9 9 -12.8 74 74 N 7 11 30.40 1030 10 16 N/A
1:53 am 01:53 Clear 13 -10.6 8 -13.3 81 81 NW 5 7 30.41 1030 10 16 N/A
2:53 am 02:53 Clear 8 -13.3 4 -15.6 83 83 WNW 6 9 30.43 1031 10 16 N/A
3:53 am 03:53 Clear 10 -12.2 6 -14.4 84 84 WNW 5 7 30.42 1030 10 16 N/A
4:53 am 04:53 Clear 7 -13.9 3 -16.1 84 84 NW 7 11 30.43 1031 10 16 N/A
5:53 am 05:53 Clear 4 -15.6 1 -17.2 88 88 NW 7 11 30.47 1032 10 16 N/A
6:53 am 06:53 Clear 6 -14.4 3 -16.1 87 87 NW 9 15 30.47 1032 10 16 N/A
7:53 am 07:53 Sunny 7 -13.9 3 -16.1 84 84 NW 9 15 30.48 1032 10 16 N/A
8:53 am 08:53 Sunny 12 -11.1 6 -14.4 77 77 NW 5 7 30.49 1033 10 16 N/A
9:53 am 09:53 Sunny 16 -8.9 9 -12.8 74 74 NNW 5 7 30.50 1033 10 16 N/A
10:53 am 10:53 Sunny 22 -5.6 11 -11.7 63 63 N N/A 30.47 1032 10 16 N/A
11:53 am 11:53 Sunny 25 -3.9 13 -10.6 60 60 SE 5 7 30.45 1031 10 16 N/A
12:53 pm 12:53 Sunny 27 -2.8 15 -9.4 61 61 SSE 3 6 30.41 1030 10 16 N/A
1:53 pm 13:53 Sunny 28 -2.2 16 -8.9 60 60 ESE 5 7 30.40 1030 10 16 N/A
2:53 pm 14:53 Sunny 27 -2.8 16 -8.9 63 63 ESE 6 9 30.42 1030 10 16 N/A
3:53 pm 15:53 Sunny 27 -2.8 16 -8.9 63 63 E 3 6 30.41 1030 10 16 N/A
4:53 pm 16:53 Clear 20 -6.7 13 -10.6 74 74 E 6 9 30.44 1031 10 16 N/A
5:53 pm 17:53 Clear 19 -7.2 11 -11.7 71 71 E 3 6 30.45 1031 10 16 N/A
6:53 pm 18:53 Clear 16 -8.9 9 -12.8 74 74 E 3 6 30.46 1032 10 16 N/A
7:53 pm 19:53 Clear 15 -9.4 9 -12.8 77 77 E 7 11 30.47 1032 10 16 N/A
8:53 pm 20:53 Clear 16 -8.9 9 -12.8 74 74 E 6 9 30.43 1031 10 16 N/A
9:53 pm 21:53 Clear 11 -11.7 8 -13.3 88 88 N N/A 30.43 1031 8 13 N/A
10:53 pm 22:53 Clear 13 -10.6 6 -14.4 74 74 ESE 3 6 30.40 1030 10 16 N/A
11:53 pm 23:53 Clear 12 -11.1 7 -13.9 80 80 ESE 6 9 30.37 1028 10 16 N/A

Powered by AerisWeather